Location: Vihti�l�
(61.3833°N, 23.0667°E)
Time: 04:15:54
(UTC+00:00)

SL-4 R/B - Pass Details

Date: 29 November 2020
Orbit: 428 x 664 km, 51.6° (Epoch: 19 January)

Event Time Altitude Azimuth Distance (km) Brightness Sun altitude
Exits shadow 05:51:20 - 256° (WSW) 2,368 4.8 -8.2°
Reaches altitude 10° 05:53:51 10° 232° (SW) 1,677 4.3 -8.0°
Maximum altitude 05:55:34 13° 205° (SSW) 1,484 4.3 -7.8°
Drops below altitude 10° 05:57:14 10° 177° (S) 1,621 4.9 -7.6°
Sets 06:00:17 0° 148° (SSE) 2,450 6.7 -7.3°
